CAPE
0 22 7 0 0 0 1 0 0 0 0 0 0 0 0 0 0 0 0 0 0 19 203 184 130 110 72 33 0 0 0 0 0 0 0 0 0 0 0 0 0 0 0 0
0 0 2 0 0 0 0 0 0 0 0 0 0 0 0 0 0 0 0 0 0 0 0 221 207 202 139 58 0 0 0 0 0 1 0 0 0 0 0 0 0 0 0 0
2 16 23 0 0 0 0 0 0 0 0 0 0 0 0 0 0 0 0 0 0 0 0 5 200 218 171 85 31 0 0 0 0 0 0 0 0 0 0 0 0 0 0 0
0 11 6 0 0 0 0 0 0 0 0 0 0 0 0 0 0 0 0 0 0 0 0 0 98 171 84 29 20 11 4 0 0 0 0 0 0 0 0 0 0 0 0 0
4 2 0 0 0 0 0 0 0 0 0 0 0 0 0 0 0 0 0 0 0 0 0 17 109 152 153 120 63 21 6 0 0 0 0 0 0 0 0 0 0 0 0 0
0 3 2 0 0 0 0 0 0 0 0 0 0 0 0 0 0 0 0 0 0 0 0 6 47 86 107 119 62 30 5 0 0 0 0 0 0 0 0 0 0 0 0 0
0 2 0 0 0 0 0 0 0 0 0 0 0 0 0 0 0 0 0 0 0 0 0 0 0 0 0 45 58 31 0 0 0 1 1 0 0 0 0 0 0 0 0 0
0 0 0 0 0 0 0 0 0 0 0 0 0 0 0 0 0 0 0 0 0 0 0 0 0 0 1 15 5 0 0 0 0 0 0 0 0 0 0 0 0 0 0 0
0 0 0 0 0 0 0 0 0 0 0 0 0 0 0 0 0 0 0 0 0 0 0 0 0 0 0 0 0 0 0 1 2 1 0 0 0 0 0 0 0 0 0 0
0 0 0 0 0 0 0 0 0 0 0 0 0 0 0 0 0 0 0 0 0 0 0 0 0 0 0 0 2 1 3 4 5 4 2 0 0 0 0 0 0 0 0 0
0 0 0 0 0 0 0 0 0 0 0 0 0 0 0 0 0 0 0 0 0 0 0 0 0 0 0 1 0 1 4 4 5 2 0 0 0 0 0 0 0 0 0 0
0 0 0 0 0 0 0 0 0 0 0 0 0 0 0 0 0 0 0 0 0 0 0 0 0 0 0 0 0 2 5 5 1 0 0 0 0 0 0 0 0 0 0 0
0 0 0 0 0 0 0 0 0 0 0 0 0 0 0 0 0 0 0 0 0 0 0 0 0 0 0 0 0 0 1 0 0 0 0 0 0 0 0 0 0 0 0 0
0 0 0 0 0 0 0 0 0 0 0 0 0 1 0 0 0 0 0 0 0 1 0 0 0 0 0 0 0 0 0 0 0 0 0 0 0 0 0 0 0 0 0 0
1 2 2 1 1 1 0 1 2 0 0 0 0 2 8 0 0 0 0 0 0 0 0 0 0 0 0 0 0 0 0 0 0 0 0 0 0 0 0 0 0 0 0 0
1 2 3 1 1 2 1 2 0 0 0 8 0 0 31 0 0 0 1 0 0 0 0 0 0 0 0 0 0 0 0 0 0 0 0 0 0 0 0 0 0 0 0 0
1 0 0 0 1 0 3 1 0 3 0 0 0 0 0 0 0 0 0 0 0 0 0 0 0 0 0 0 0 0 0 0 0 0 0 0 0 0 0 0 0 0 0 0
1 0 0 1 0 0 1 1 3 1 0 0 1 2 3 3 3 3 0 0 0 0 0 0 0 0 0 0 0 0 0 0 0 0 0 0 0 0 0 0 0 0 0 0
0 0 0 1 0 0 1 0 1 1 1 1 2 5 5 5 3 3 2 0 0 0 0 0 0 0 0 0 0 0 0 0 0 0 0 0 0 0 0 0 0 0 0 0
0 0 0 0 0 0 0 0 0 1 2 2 1 1 0 1 2 2 1 2 2 0 0 0 0 0 0 0 0 0 0 0 0 0 0 0 0 0 0 0 0 0 0 0
0 0 0 0 0 0 0 0 0 0 0 2 1 0 1 4 4 1 1 1 0 0 0 0 0 0 0 0 0 0 0 0 0 0 0 0 0 0 0 0 0 0 0 0
0 0 0 0 0 0 0 0 0 0 0 0 0 0 0 0 0 0 0 0 0 0 0 0 0 0 0 0 0 0 0 0 0 0 0 0 0 0 0 0 0 0 0 0
0 0 0 0 0 0 0 0 0 0 0 2 1 0 0 1 0 0 0 0 0 0 0 0 0 0 0 0 0 0 0 0 0 0 0 0 0 0 0 0 0 0 0 0
0 1 1 1 1 0 0 0 0 0 0 0 0 0 0 0 0 0 0 0 0 0 0 0 0 0 0 0 0 0 0 0 0 0 0 0 0 0 0 0 0 0 0 0
1 1 1 0 0 0 0 0 0 0 0 0 0 0 0 0 0 0 0 0 0 0 0 0 0 0 0 0 0 0 0 0 0 0 0 0 0 0 0 0 0 0 0 0
0 0 0 1 0 0 2 2 0 0 0 0 0 0 0 0 0 0 0 0 0 0 0 0 0 0 0 0 0 0 0 0 0 0 0 0 0 0 0 0 0 0 0 0
0 0 0 0 0 0 0 0 0 0 0 1 1 1 0 0 0 0 0 0 0 0 0 0 0 0 0 0 0 0 0 0 0 0 0 1 0 0 0 0 0 0 0 0
CIN
-0 -1 -33 -0 -0 -0 -52 -2 -0 -0 -0 -0 -0 -0 -0 -0 -0 -0 -0 -0 -0 -188 -244 -382 -468 -522 -612 -677 -0 -0 -0 -0 -0 -0 -0 -1 -0 -0 -0 -0 -0 -0 -0 -0
-0 -0 -0 -0 -0 -0 -0 -0 -0 -0 -0 -0 -0 -0 -0 -0 -0 -0 -0 -0 -0 -0 -0 -254 -342 -450 -521 -629 -6 -0 -0 -0 -0 -0 -0 -0 -0 -0 -0 -0 -0 -0 -0 -0
-3 -5 -2 -0 -0 -0 -0 -0 -0 -0 -0 -0 -0 -0 -0 -0 -0 -0 -0 -0 -0 -0 -0 -72 -349 -423 -490 -627 -784 -0 -0 -0 -0 -0 -0 -0 -0 -0 -0 -0 -0 -0 -0 -0
-6 -6 -2 -0 -0 -0 -0 -0 -0 -0 -0 -0 -0 -0 -0 -0 -0 -0 -0 -0 -0 -0 -0 -32 -445 -521 -642 -733 -722 -672 -621 -0 -0 -0 -0 -0 -0 -0 -0 -0 -0 -0 -0 -0
-0 -1 -0 -0 -0 -0 -0 -0 -0 -0 -0 -0 -0 -0 -0 -0 -0 -0 -0 -0 -0 -0 -0 -227 -289 -426 -452 -518 -576 -613 -494 -0 -0 -0 -0 -0 -0 -0 -0 -0 -0 -0 -0 -0
-0 -1 -4 -0 -0 -0 -0 -0 -0 -0 -0 -0 -0 -0 -0 -0 -0 -0 -0 -0 -0 -0 -0 -228 -218 -393 -369 -407 -524 -526 -608 -0 -0 -0 -0 -0 -0 -0 -0 -0 -0 -0 -0 -0
-1 -0 -0 -0 -0 -0 -0 -0 -0 -0 -0 -0 -0 -0 -0 -0 -0 -0 -0 -0 -0 -0 -0 -0 -0 -0 -0 -486 -448 -555 -0 -0 -0 -0 -0 -0 -0 -0 -0 -0 -0 -0 -0 -0
-0 -1 -0 -0 -0 -0 -0 -0 -0 -0 -0 -0 -0 -0 -0 -0 -0 -0 -0 -0 -0 -0 -0 -0 -0 -0 -177 -432 -208 -0 -0 -0 -0 -0 -0 -0 -0 -0 -0 -0 -0 -0 -0 -0
-0 -0 -0 -0 -0 -0 -0 -0 -0 -0 -0 -0 -0 -0 -0 -0 -0 -0 -0 -0 -0 -0 -0 -0 -0 -0 -0 -0 -0 -0 -0 -0 -0 -0 -0 -0 -0 -0 -0 -0 -0 -0 -0 -0
-1 -0 -0 -0 -0 -0 -0 -0 -0 -0 -0 -0 -0 -0 -0 -0 -0 -0 -0 -0 -0 -0 -0 -0 -0 -0 -0 -0 -0 -0 -0 -0 -0 -0 -0 -0 -0 -0 -0 -0 -0 -0 -0 -0
-0 -0 -0 -0 -0 -0 -0 -0 -0 -0 -0 -0 -0 -0 -0 -0 -0 -0 -0 -0 -0 -0 -0 -0 -0 -0 -0 -0 -0 -0 -0 -0 -0 -0 -0 -0 -0 -0 -0 -0 -0 -0 -0 -0
-0 -0 -0 -0 -0 -0 -0 -0 -0 -0 -0 -0 -0 -0 -0 -0 -0 -0 -0 -0 -0 -0 -0 -0 -0 -0 -0 -0 -0 -0 -0 -0 -0 -0 -0 -0 -0 -0 -0 -0 -0 -0 -0 -0
-0 -0 -0 -0 -0 -0 -0 -0 -0 -0 -0 -0 -0 -0 -0 -0 -0 -0 -0 -0 -0 -0 -0 -0 -0 -0 -0 -0 -0 -0 -0 -0 -0 -0 -0 -0 -0 -0 -0 -0 -0 -0 -0 -0
-0 -0 -0 -0 -0 -0 -0 -0 -0 -0 -0 -0 -0 -55 -0 -0 -0 -0 -0 -0 -0 -0 -0 -0 -0 -0 -0 -0 -0 -0 -0 -0 -0 -0 -0 -0 -0 -0 -0 -0 -0 -0 -0 -0
-0 -0 -0 -0 -0 -0 -0 -0 -2 -0 -0 -0 -0 -173 -137 -0 -0 -0 -0 -0 -0 -0 -0 -0 -0 -0 -0 -0 -0 -0 -0 -0 -0 -0 -0 -0 -0 -0 -0 -0 -0 -0 -0 -0
-0 -0 -0 -0 -0 -0 -1 -3 -0 -0 -0 -45 -0 -0 -232 -0 -0 -0 -0 -0 -0 -0 -0 -0 -0 -0 -0 -0 -0 -0 -0 -0 -0 -0 -0 -0 -0 -0 -0 -0 -0 -0 -0 -0
-0 -0 -0 -0 -0 -0 -0 -0 -0 -2 -0 -0 -0 -0 -0 -0 -0 -0 -0 -0 -0 -0 -0 -0 -0 -0 -0 -0 -0 -0 -0 -0 -0 -0 -0 -0 -0 -0 -0 -0 -0 -0 -0 -0
-0 -0 -0 -0 -0 -0 -0 -0 -0 -0 -0 -0 -0 -0 -0 -0 -0 -0 -0 -0 -0 -0 -0 -0 -0 -0 -0 -0 -0 -0 -0 -0 -0 -0 -0 -0 -0 -0 -0 -0 -0 -0 -0 -0
-0 -0 -0 -0 -0 -0 -0 -0 -0 -0 -0 -0 -0 -0 -0 -0 -0 -0 -0 -0 -0 -0 -0 -0 -0 -0 -0 -0 -0 -0 -0 -0 -0 -0 -0 -0 -0 -0 -0 -0 -0 -0 -0 -0
-0 -0 -0 -0 -0 -0 -0 -0 -0 -0 -0 -0 -0 -0 -0 -0 -0 -0 -0 -0 -0 -0 -0 -0 -0 -0 -0 -0 -0 -0 -0 -0 -0 -0 -0 -0 -0 -0 -0 -0 -2 -0 -0 -0
-0 -0 -0 -0 -0 -0 -0 -0 -0 -0 -0 -0 -0 -0 -0 -0 -0 -0 -0 -0 -0 -0 -0 -0 -0 -0 -0 -0 -0 -0 -0 -0 -0 -0 -0 -0 -0 -0 -0 -0 -0 -0 -0 -0
-0 -0 -0 -0 -0 -0 -0 -0 -0 -0 -0 -0 -0 -0 -0 -0 -0 -0 -0 -0 -0 -0 -0 -0 -0 -0 -0 -0 -0 -0 -0 -0 -0 -0 -0 -0 -0 -0 -0 -0 -3 -0 -0 -0
-0 -0 -0 -0 -0 -0 -0 -0 -0 -0 -0 -0 -0 -0 -0 -0 -0 -0 -0 -0 -0 -0 -0 -0 -0 -0 -0 -0 -0 -0 -0 -0 -0 -0 -0 -0 -0 -0 -0 -0 -0 -0 -0 -4
-0 -0 -0 -0 -0 -0 -0 -0 -0 -0 -0 -0 -0 -0 -0 -0 -0 -0 -0 -0 -0 -0 -0 -0 -0 -0 -0 -0 -0 -0 -0 -0 -0 -0 -0 -0 -0 -0 -0 -0 -0 -1 -1 -0
-0 -0 -0 -0 -0 -0 -0 -0 -0 -0 -0 -0 -0 -0 -0 -0 -0 -0 -0 -0 -0 -0 -0 -0 -0 -0 -0 -0 -0 -0 -0 -0 -0 -0 -0 -0 -0 -0 -0 -0 -0 -0 -0 -19
-0 -0 -0 -0 -0 -0 -0 -0 -0 -0 -0 -0 -0 -0 -0 -0 -0 -0 -0 -0 -0 -0 -0 -0 -0 -0 -0 -0 -0 -0 -0 -0 -0 -0 -0 -0 -0 -0 -0 -0 -0 -0 -0 -0
-0 -0 -0 -0 -0 -0 -0 -0 -0 -0 -0 -0 -0 -0 -0 -0 -0 -0 -0 -0 -0 -0 -0 -0 -0 -0 -0 -0 -0 -0 -0 -0 -0 -0 -0 -0 -0 -0 -0 -0 -0 -0 -0 -0
Wind_Speed
52 57 49 46 51 47 52 51 57 56 56 64 55 56 53 50 49 46 44 39 29 25 25 24 24 22 20 17 16 14 14 14 15 14 14 16 16 17 18 18 18 17 16 16
38 41 50 62 51 48 50 48 48 53 60 60 54 50 51 54 51 50 50 44 38 33 31 30 28 26 22 21 20 18 18 16 15 13 15 16 17 17 17 18 17 16 14 13
46 37 35 43 43 51 47 50 48 55 54 58 62 55 51 51 52 56 52 47 41 38 31 31 30 29 28 25 24 22 20 19 16 16 16 15 15 16 17 17 15 15 14 11
52 48 55 44 37 38 43 46 48 50 54 57 61 58 54 55 51 51 55 55 51 44 39 34 30 32 32 29 26 25 24 20 19 18 17 15 15 16 16 15 15 14 13 11
57 58 53 46 34 35 39 49 41 43 47 53 56 52 62 55 53 55 53 54 54 49 43 36 29 26 27 30 28 27 26 24 21 19 18 16 15 15 14 13 14 14 12 11
55 60 65 59 45 45 46 61 37 39 47 54 55 62 71 48 48 54 54 52 53 51 42 37 36 32 31 33 34 33 30 25 22 19 17 16 14 14 14 14 13 12 11 11
60 63 62 64 49 38 49 52 51 46 48 52 53 55 58 49 55 53 53 53 49 44 45 42 38 34 34 33 34 31 27 24 22 19 17 15 14 14 14 14 13 13 12 13
50 58 69 56 58 60 53 53 58 49 47 50 51 57 56 53 56 56 55 55 54 50 46 42 36 35 36 35 32 28 26 24 22 19 16 15 13 14 13 13 14 15 14 16
41 46 42 52 64 58 47 49 59 53 48 47 50 54 53 54 53 52 53 54 52 50 51 46 39 37 38 36 31 28 25 24 21 18 17 15 14 14 15 16 17 18 19 20
43 50 46 41 46 51 46 45 46 49 44 44 51 58 59 54 53 52 54 52 49 47 46 44 39 34 32 26 24 23 22 21 19 18 16 16 16 16 18 19 20 20 22 23
41 52 37 48 46 48 49 44 47 54 53 53 54 62 64 60 58 57 57 48 41 39 37 36 30 26 23 21 19 20 19 19 17 16 16 15 15 16 17 19 19 21 21 21
38 36 39 51 54 50 47 46 45 48 55 54 56 61 65 63 57 57 49 38 33 29 24 22 21 21 19 18 18 18 17 17 17 15 15 14 14 18 18 18 18 17 18 19
46 47 51 62 62 60 55 60 52 49 54 60 60 57 59 57 54 44 35 29 26 22 18 15 14 14 14 14 14 15 15 15 14 14 14 16 16 16 19 17 16 17 17 17
46 50 60 59 62 68 56 59 59 54 55 58 55 54 56 55 46 39 31 22 18 16 14 13 13 13 12 12 11 11 11 10 10 11 12 13 14 14 14 15 16 17 17 18
43 46 54 56 50 51 59 55 54 56 56 52 50 54 51 50 43 33 24 16 14 11 10 10 10 10 9 9 9 8 8 8 7 8 10 10 11 11 13 15 16 17 19 21
41 40 42 42 41 42 41 47 54 54 52 49 53 54 40 34 30 25 21 18 15 14 12 9 8 9 8 6 5 4 4 4 5 6 7 9 12 13 13 15 17 19 20 22
36 37 36 36 33 30 27 30 26 16 11 29 27 16 24 29 26 22 18 11 11 12 10 10 12 6 5 5 3 2 1 3 3 6 7 9 11 12 13 15 17 18 20 22
27 29 25 22 23 23 25 22 16 11 9 10 13 14 23 26 25 21 15 10 7 4 4 6 8 7 3 2 2 2 2 1 3 5 7 8 10 12 14 15 17 19 21 23
24 24 22 24 22 21 18 16 14 12 11 10 7 7 6 16 14 12 10 10 9 7 4 5 4 4 1 1 1 1 2 3 5 6 7 9 10 12 14 17 20 22 24 26
22 21 20 21 20 20 21 22 18 20 16 16 11 11 9 8 7 4 5 5 6 5 6 5 6 5 4 2 2 4 5 5 6 8 9 10 12 15 18 19 21 24 25 27
20 20 19 21 19 19 20 21 21 20 20 19 19 16 15 12 10 9 8 6 2 2 4 4 3 2 3 3 4 6 7 8 9 10 10 12 14 17 19 20 23 25 27 29
19 19 19 18 19 19 19 18 18 17 15 14 13 14 14 13 11 9 7 3 3 2 2 1 2 3 4 5 7 7 9 10 10 11 12 15 17 18 20 22 25 27 28 30
17 17 18 19 19 19 19 19 19 17 15 14 12 10 9 9 8 7 6 9 6 6 6 7 7 6 5 6 7 9 10 12 12 14 16 17 17 19 21 24 25 26 28 29
17 17 18 18 18 19 19 19 19 19 18 16 15 14 14 13 13 14 14 13 11 10 11 10 9 9 8 9 9 11 12 13 15 17 19 19 20 21 22 24 25 25 26 27
17 18 19 19 19 19 18 18 18 18 18 17 17 17 17 16 16 17 17 17 16 15 14 11 9 8 10 11 12 13 13 14 17 18 18 19 19 20 21 22 23 26 27 26
20 21 20 19 18 18 18 18 18 19 18 18 18 19 19 18 18 17 17 16 15 14 13 10 9 7 7 8 8 9 11 13 16 15 15 16 17 19 20 21 24 24 25 25
18 18 18 18 19 19 19 18 18 19 19 18 18 19 19 19 19 19 18 17 15 14 12 10 8 7 7 7 8 8 9 11 12 12 14 14 15 16 18 20 21 23 23 24
Wind_Direction
261 256 255 255 251 253 253 255 254 256 256 255 260 261 264 266 268 271 268 275 278 270 260 254 252 249 253 253 251 259 269 279 289 299 309 311 309 310 311 310 310 310 310 309
270 264 257 252 256 257 256 259 262 260 259 259 265 267 267 266 267 267 266 270 273 277 266 256 250 250 249 250 251 259 269 273 284 288 304 307 304 309 311 312 314 314 316 313
261 264 266 257 257 254 258 261 263 260 262 261 261 266 269 270 267 263 265 266 270 274 276 266 255 249 248 252 256 258 265 271 275 285 293 300 305 307 309 310 314 314 316 313
262 263 258 263 264 262 263 265 264 264 265 264 262 266 269 267 270 271 266 265 267 270 271 272 270 260 259 260 260 262 265 267 273 280 285 292 298 302 307 311 311 312 314 311
260 259 262 263 264 262 263 265 269 268 268 265 265 272 264 267 269 270 271 268 266 268 269 267 266 264 257 257 258 261 263 266 270 272 276 281 289 296 302 307 311 310 309 304
259 261 260 261 263 263 268 262 267 271 270 267 267 264 260 274 275 270 271 271 269 268 268 264 264 263 262 261 258 260 261 263 264 265 268 274 282 289 298 302 307 308 308 303
259 262 264 256 265 271 259 264 266 271 270 265 265 265 269 276 275 273 272 269 269 271 267 266 266 263 263 263 257 258 257 259 259 260 264 269 280 287 293 298 303 307 309 305
268 268 265 265 264 257 268 270 263 273 272 268 268 266 271 275 274 273 272 269 265 265 267 270 270 265 265 262 263 261 256 256 253 253 258 266 272 284 289 292 297 298 300 300
270 277 283 274 267 268 272 273 270 270 274 275 272 270 276 277 276 275 276 272 267 264 267 270 269 268 266 264 259 254 253 249 248 254 259 262 264 276 284 289 292 294 295 297
275 274 276 282 276 270 272 272 273 275 277 277 275 269 270 272 275 278 275 273 268 265 265 267 266 266 262 262 256 250 243 244 249 251 257 266 274 279 286 289 293 295 296 298
280 275 278 278 277 274 272 274 278 275 275 275 276 270 265 267 268 269 271 269 268 266 263 263 260 258 254 250 242 240 240 243 249 254 260 269 278 287 292 299 299 298 299 303
281 286 287 278 275 277 277 274 276 278 277 275 274 271 266 264 265 267 268 267 267 262 259 255 250 248 245 240 236 235 243 245 245 250 266 270 276 293 304 303 305 305 307 304
285 289 286 277 278 275 277 276 279 278 277 276 273 269 265 265 264 269 269 268 258 251 247 240 231 232 233 230 232 237 239 243 254 261 265 276 285 289 293 306 307 306 306 308
296 297 287 285 280 275 279 275 274 276 276 275 271 268 265 264 261 261 262 259 245 234 231 229 234 240 236 230 228 234 239 244 253 265 274 282 285 288 295 295 300 304 308 308
309 304 291 283 292 277 276 273 271 271 273 272 267 264 264 255 249 250 245 234 221 210 221 234 233 236 236 225 217 221 233 245 257 275 286 287 289 294 297 300 298 302 306 309
304 306 311 285 287 288 255 245 243 236 263 267 266 264 254 234 230 231 228 219 209 225 228 222 227 217 214 206 212 229 251 259 279 285 287 289 292 295 298 300 302 305 308 309
315 315 310 299 284 284 275 258 209 188 266 284 276 231 213 212 214 214 209 216 253 248 233 218 222 189 178 152 167 208 251 276 289 293 292 295 297 300 305 306 307 309 311 314
310 318 314 311 303 294 311 311 302 302 312 315 284 224 207 211 203 200 206 211 216 225 196 205 190 169 170 173 203 261 274 286 301 304 306 309 311 312 311 313 315 315 317 319
310 316 311 325 326 332 333 340 339 343 348 355 260 222 197 222 225 213 205 201 195 174 190 145 157 158 187 232 154 69 6 334 326 322 321 322 321 320 320 319 318 319 320 320
316 320 319 327 332 343 358 5 7 23 23 34 41 57 76 104 130 132 153 180 184 167 129 119 116 105 94 68 22 349 330 330 329 324 322 322 320 319 319 321 322 322 323 322
331 334 338 345 342 344 349 357 8 14 23 35 47 52 58 61 69 79 86 102 100 81 109 109 91 36 39 28 358 338 334 328 322 320 320 320 321 323 324 324 324 324 323 323
336 338 340 340 346 352 352 351 357 2 6 14 25 38 51 55 54 47 26 34 11 35 77 16 322 325 327 330 329 327 325 325 324 322 321 321 322 323 323 324 325 326 326 326
331 335 338 340 342 343 349 353 354 354 353 351 346 338 342 347 342 355 350 332 339 325 311 299 295 292 290 307 316 319 320 321 321 321 321 321 322 324 325 325 326 327 329 329
334 334 336 337 340 343 341 340 344 348 350 350 347 342 335 332 325 319 318 317 315 308 304 302 300 287 286 295 305 311 315 317 319 319 319 320 320 321 324 327 329 332 334 335
340 340 338 332 331 331 333 335 341 342 344 345 342 339 337 334 328 320 317 314 311 305 302 300 297 289 286 290 296 303 308 313 317 318 318 321 323 326 329 331 333 334 335 337
325 329 332 338 342 342 343 344 344 343 343 344 344 340 341 341 340 339 336 333 329 323 317 312 310 301 300 300 302 307 313 318 322 321 323 325 327 330 332 334 335 338 341 341
338 333 334 334 331 333 337 338 339 337 334 334 337 333 335 337 338 337 338 340 341 341 333 332 331 324 316 310 310 315 318 322 326 325 326 328 330 333 333 336 341 343 346 346